Regional Weather Roundup
Issued by NWS

Home | Current Version | Previous Version | Graphics & Text | Print | Product List | Glossary On
Versions: 1 2 3 4 5 6 7 8 9 10 11 12 13 14 15 16 17 18 19 20 21 22 23 24 25 26 27 28 29 30 31 32 33 34 35 36 37 38 39 40 41 42 43 44 45 46 47 48 49 50
000
ASUS45 KCYS 260410
RWRWY

WYOMING REGIONAL WEATHER ROUNDUP
NATIONAL WEATHER SERVICE CHEYENNE WY
1000 PM MDT FRI JUL 25 2014

NOTE:  "FAIR" INDICATES FEW OR NO CLOUDS BELOW 12,000 FEET
WITH NO SIGNIFICANT WEATHER AND/OR OBSTRUCTIONS TO VISIBILITY.

WYZ001-260500-
YELLOWSTONE NATIONAL PARK

CITY           SKY/WX    TMP DP  RH WIND       PRES   REMARKS
LK YELLOWSTONE   N/A     47  31  53 NW3       30.29R
W YELLOWSTONE  NOT AVBL

$$
WYZ002>013-054>058-071-098>099-260500-
NORTHERN WYOMING

CITY           SKY/WX    TMP DP  RH WIND       PRES   REMARKS
JACKSON        CLEAR     61  28  29 CALM      30.17R
CODY           NOT AVBL
GREYBULL       CLOUDY    80  26  13 NW13      29.91R
WORLAND        CLEAR     77  28  16 NE6       29.94R
SHERIDAN       CLEAR     71  41  33 W13       29.98R
BUFFALO        PTCLDY    71  36  27 NW12      30.05R
GILLETTE       PTCLDY    62  49  62 CALM      29.96R
HULETT         FAIR      64  52  63 MISG      29.96
NEWCASTLE      FAIR      77  45  31 E7        29.91

$$
WYZ014>020-022>026-101>103-260500-
CENTRAL WYOMING

CITY           SKY/WX    TMP DP  RH WIND       PRES   REMARKS
BIG PINEY      CLEAR     65  23  20 N10       30.23R
PINEDALE       CLEAR     55  32  41 W5        30.24R
DUBOIS         FAIR      61  25  25 NW7       30.21R
LANDER         CLEAR     73  28  18 W10       30.05R
RIVERTON       CLEAR     75  23  14 NW17      30.06R
CASPER         CLEAR     73  26  17 NW10      29.99R
DOUGLAS        CLEAR     67  52  58 S7        29.95R

$$
WYZ021-027>030-104>119-260500-
SOUTHERN WYOMING

CITY           SKY/WX    TMP DP  RH WIND       PRES   REMARKS
EVANSTON       CLEAR     71  30  21 NE5       30.23R
KEMMERER       CLEAR     63  28  27 N10       30.23R
FORT BRIDGER   FAIR      71  26  18 NW6       30.24R
ROCK SPRINGS   CLEAR     77  23  13 NW17G29   30.18R
DIXON          FAIR      70  45  40 E18       30.22R
RAWLINS        PTCLDY    72  41  32 SW14      30.19R
SARATOGA       FAIR      63  46  55 E6        30.22R
LARAMIE        CLOUDY    65  45  48 S9        30.20R
CHEYENNE       CLOUDY    71  53  52 S13G22    30.12S
TORRINGTON     PTCLDY    73  56  54 SE13      29.92R
PINE BLUFFS    FAIR      66  54  63 S8        30.07R

$$


USA.gov is the U.S. government's official web portal to all federal, state and local government web resources and services.